Regional Weather Roundup
Issued by NWS

Home | Current Version | Previous Version | Text Only | Print | Product List | Glossary Off
Versions: 1 2 3 4 5 6 7 8 9 10 11 12 13 14 15 16 17 18 19 20 21 22 23 24 25 26 27 28 29 30 31 32 33 34 35 36 37 38 39 40 41 42 43 44 45 46 47 48 49 50

000
ASUS43 KDTX 311201
RWRMI
MICHIGAN HOURLY REGIONAL WEATHER ROUNDUP
NATIONAL WEATHER SERVICE DETROIT/PONTIAC MI
700 AM EST SAT JAN 31 2015

NOTE: "FAIR" INDICATES FEW OR NO CLOUDS BELOW 12,000 FEET WITH NO
SIGNIFICANT WEATHER AND/OR OBSTRUCTION TO VISIBILITY.

MIZ047>049-052>055-059>063-066>070-074>076-081>083-311300-
SOUTHEAST LOWER MICHIGAN

CITY           SKY/WX    TMP DP  RH WIND       PRES   REMARKS
ADRIAN         CLOUDY    16  12  84 SW7       30.30F WCI   6
6HR MIN TEMP:  12; 6HR MAX TEMP:  16;

ALMA           CLOUDY    20  16  86 S6        30.23F WCI  12
ANN ARBOR      CLOUDY    10   7  87 CALM      30.28
BAD AXE        FLURRIES  13   9  87 S5        30.25F WCI   5
6HR MIN TEMP:   1; 6HR MAX TEMP:  13;

CARO           CLOUDY    14  10  82 CALM      30.24F
DETROIT CITY   CLOUDY    19  11  70 CALM      30.31F
6HR MIN TEMP:  15; 6HR MAX TEMP:  19;

DETROIT        MOCLDY    14  10  84 S5        30.31S WCI   6
6HR MIN TEMP:  11; 6HR MAX TEMP:  15;

FLINT          MOCLDY    19  11  70 S8        30.25F WCI   9
6HR MIN TEMP:  11; 6HR MAX TEMP:  20;

GROSSE ILE     PTCLDY    18  12  79 SW3       30.30F
HILLSDALE      CLOUDY    18  15  87 S3        30.25F
6HR MIN TEMP:   8; 6HR MAX TEMP:  18;

HOWELL         CLOUDY    17  12  83 S6        30.24F WCI   8
6HR MIN TEMP:  13; 6HR MAX TEMP:  17;


CITY           SKY/WX    TMP DP  RH WIND       PRES   REMARKS
JACKSON        CLOUDY    18  13  80 SW8       30.25F WCI   8
6HR MIN TEMP:  12; 6HR MAX TEMP:  18;

LAMBERTVILLE   MOCLDY    19  14  79 SW5       30.32S WCI  13
LANSING        CLOUDY    19  13  77 S8        30.24F WCI   9
6HR MIN TEMP:  16; 6HR MAX TEMP:  19;

LAPEER         CLOUDY    16  10  78 SW5       30.25S WCI   8
MASON          CLOUDY    17  13  82 CALM      30.24F
MONROE         PTCLDY    16  12  86 CALM      30.30S
MT. CLEMENS    MOCLDY    13   9  83 S6        30.27F WCI   4
6HR MIN TEMP:   7; 6HR MAX TEMP:  15;

PONTIAC        CLOUDY    15   9  76 S5        30.24F WCI   8
6HR MIN TEMP:   8; 6HR MAX TEMP:  15;

PORT HOPE        N/A     11   5  77 SW5       30.24S WCI   3
6HR MIN TEMP:   6; 6HR MAX TEMP:  11;

PORT HURON     CLOUDY     9   5  85 S3        30.29F
TRI CITIES     CLOUDY    19  12  74 S7        30.23F WCI  10
6HR MIN TEMP:  15; 6HR MAX TEMP:  19;

TROY           CLOUDY    18   9  69 SW3       30.30F
SAGINAW HB     CLOUDY    19  14  79 S10       30.24F WCI   8
$$
MIZ043>046-050>051-056>058-064>065-071>073-077>080-311300-
SOUTHWEST LOWER MICHIGAN

CITY           SKY/WX    TMP DP  RH WIND       PRES   REMARKS
BATTLE CREEK   MOCLDY    17  12  80 SW7       30.25F WCI   8
6HR MIN TEMP:  12; 6HR MAX TEMP:  19;

BENTON HARBOR  PTCLDY    20  16  84 S7        30.26S WCI  11
6HR MIN TEMP:  12; 6HR MAX TEMP:  20;

BIG RAPIDS     CLOUDY    18  15  90 SW6       30.17F WCI   9
6HR MIN TEMP:  12; 6HR MAX TEMP:  18;

COLDWATER      CLOUDY    20  16  81 SW8       30.26F WCI  11
6HR MIN TEMP:   9; 6HR MAX TEMP:  20;

FREMONT        FAIR      17  14  88 CALM      30.20F
HOLLAND        MOCLDY    22  17  81 S8        30.24F WCI  12
6HR MIN TEMP:  19; 6HR MAX TEMP:  27;

GRAND RAPIDS   MOCLDY    20  15  81 S9        30.23F WCI   9
6HR MIN TEMP:  19; 6HR MAX TEMP:  20;

IONIA          CLOUDY    22  17  81 SW8       30.23R WCI  12
KALAMAZOO      MOCLDY    17  12  80 S6        30.26S WCI   9
6HR MIN TEMP:  14; 6HR MAX TEMP:  18;

LUDINGTON      CLOUDY    31  23  72 SW10G16   30.17F WCI  22
MARSHALL       MOCLDY    17  13  84 S5        30.25F WCI  10
MOUNT PLEASANT CLOUDY    19  14  81 CALM      30.21S
6HR MIN TEMP:  11; 6HR MAX TEMP:  19;

MUSKEGON       PTCLDY    29  19  66 SW9       30.22F WCI  20
6HR MIN TEMP:  19; 6HR MAX TEMP:  29;

SOUTH HAVEN    PTCLDY    22  17  83 S5        30.26R WCI  15
$$
MIZ016>042-311300-
NORTHERN LOWER MICHIGAN

CITY           SKY/WX    TMP DP  RH WIND       PRES   REMARKS
ALPENA         LGT SNOW  13  10  88 S6        30.19S FOG     WCI   4
6HR MIN TEMP:   6; 6HR MAX TEMP:  13; 6HR PCP:  0.02;

BEAVER ISLAND  CLOUDY    23  18  80 CALM      30.12F
6HR MIN TEMP:  20; 6HR MAX TEMP:  23;

CADILLAC       CLOUDY    15  11  85 S3        30.12F
CHARLEVOIX     CLOUDY    18  15  87 S6        30.16F WCI  10
6HR MIN TEMP:  15; 6HR MAX TEMP:  18;

FRANKFORT      CLOUDY    20  15  81 SE3       30.14F
GAYLORD        CLOUDY    14  11  87 S5        30.10F WCI   6
6HR MIN TEMP:  11; 6HR MAX TEMP:  14; 6HR PCP: TRACE;

GRAYLING       CLOUDY    15  10  81 CALM      30.14F
6HR MIN TEMP:   9; 6HR MAX TEMP:  16;

HARBOR SPRINGS CLOUDY    17  14  86 CALM      30.14S
HOUGHTON LAKE  CLOUDY    15   9  76 S3        30.15F
6HR MIN TEMP:   9; 6HR MAX TEMP:  15; 6HR PCP: TRACE;

MANISTEE       CLOUDY    16   9  73 E3        30.17F
OSCODA         LGT SNOW  12   9  87 S6        30.22F WCI   3
PELLSTON       CLOUDY    15  12  88 SE5       30.14F WCI   8
6HR MIN TEMP:  11; 6HR MAX TEMP:  15; 6HR PCP: TRACE;

TRAVERSE CITY  CLOUDY    20  12  71 S6        30.14F WCI  12
6HR MIN TEMP:  15; 6HR MAX TEMP:  20;

$$
MIZ007>008-015-311300-
EASTERN UPPER MICHIGAN

CITY           SKY/WX    TMP DP  RH WIND       PRES   REMARKS
KINROSS        CLOUDY    14  14 100 S6        30.11F WCI   5
6HR MIN TEMP:  10; 6HR MAX TEMP:  14;

MACKINAC ISLAN FLURRIES  14  11  89 S7        30.12F WCI   4
6HR MIN TEMP:  14; 6HR MAX TEMP:  15;

NEWBERRY       CLOUDY    15  13  92 SW8       30.09S WCI   5
S. S. MARIE    FLURRIES  10   6  84 E3        30.12F
6HR MIN TEMP:   8; 6HR MAX TEMP:  11; 6HR PCP:  0.02;

$$
MIZ004>006-011>014-085-311300-
CENTRAL UPPER MICHIGAN

CITY           SKY/WX    TMP DP  RH WIND       PRES   REMARKS
MANISTIQUE     CLOUDY    21  15  79 W6        30.10F WCI  13
ESCANABA       CLOUDY    19   9  63 W5        30.12S WCI  13
6HR MIN TEMP:  18; 6HR MAX TEMP:  19;

MENOMINEE      CLOUDY    21  10  63 W5        30.13S WCI  15
6HR MIN TEMP:  19; 6HR MAX TEMP:  21;

SAWYER-GWINN   CLOUDY    14  10  85 CALM      30.06F
$$
MIZ001>003-009>011-084-311300-
WESTERN UPPER MICHIGAN

CITY           SKY/WX    TMP DP  RH WIND       PRES   REMARKS
IRON MOUNTAIN  CLOUDY    20  10  65 W5        30.07S WCI  13
6HR MIN TEMP:  16; 6HR MAX TEMP:  20; 6HR PCP: TRACE;

HOUGHTON       CLOUDY    17  12  80 SW3       30.04R
6HR MIN TEMP:  15; 6HR MAX TEMP:  17; 6HR PCP: TRACE;

COPPER HARBOR    N/A     25  18  74 N18G25    30.05S WCI  11
6HR MIN TEMP:  16; 6HR MAX TEMP:  25; 6HR PCP:  0.01;

IRONWOOD       CLOUDY    21  18  86 W9        30.07R WCI  11
6HR MIN TEMP:  18; 6HR MAX TEMP:  21;

$$

ABBREVIATIONS USED IN REMARKS
   TC - TEMPERATURE IN CELSIUS
  WCI - WIND CHILL INDEX
   HX - HEAT INDEX
  VSB - VISIBILITY



USA.gov is the U.S. government's official web portal to all federal, state and local government web resources and services.